[[{"header":{"parameterUnit":"m.s-1","parameterCategory":2,"la1":30.2992,"la2":30.254,"lo1":-89.0895,"lo2":-89.0443,"dy":0.0025,"dx":0.0025,"nx":19,"ny":19,"refTime":"2026-04-06T21:00:00:Z","depth":"0","parameterNumber":2,"parameterNumberName":"U-component_of_CURRENTS"},"data":[0,0,0,-0.2552,-0.2553,-0.2587,-0.2587,-0.2564,-0.2564,0,0,0,0,0,0,0,0,0,0,0,-0.2534,-0.2534,-0.2552,-0.2553,-0.2587,-0.2587,-0.2564,-0.2564,0,0,0,0,0,0,0,0,0,0,0,-0.2534,-0.2534,-0.2535,-0.2553,-0.2587,-0.2587,-0.2564,-0.2552,0,0,0,0,0,0,0,0,0,0,-0.2526,-0.2512,-0.2534,-0.2535,-0.2554,-0.2587,-0.2587,-0.2552,-0.2553,-0.2535,0,-0.2548,0,-0.2563,-0.2562,-0.2562,0,0,0,-0.254,-0.2511,-0.2536,-0.2535,-0.2554,-0.2587,-0.2568,-0.2553,-0.2554,-0.2535,-0.2548,-0.2547,-0.2563,-0.2562,-0.2562,-0.2571,-0.2571,0,0,-0.2538,-0.2521,-0.2536,-0.2537,-0.2572,-0.2567,-0.2569,-0.2554,-0.2547,-0.2548,-0.2547,-0.2562,-0.2562,-0.2562,-0.2571,-0.2571,0,0,0,-0.2542,-0.252,-0.2546,-0.2537,-0.2553,-0.2568,-0.2571,-0.2548,-0.2561,-0.2547,-0.2562,-0.2562,-0.2562,-0.257,-0.2571,-0.2605,0,0,0,-0.254,-0.2523,-0.2545,-0.2532,-0.2554,-0.2557,-0.2564,-0.2562,-0.2562,-0.2562,-0.2562,-0.2561,-0.257,-0.2571,-0.2604,-0.2596,0,0,0,-0.2531,-0.2522,-0.2533,-0.2532,-0.2556,-0.2559,-0.257,-0.2562,-0.2571,-0.2562,-0.2561,-0.257,-0.257,-0.2602,-0.2595,-0.2589,0,0,0,-0.2503,-0.2527,-0.2532,-0.2564,-0.2556,-0.26,-0.2571,-0.2588,-0.2586,-0.2562,-0.257,-0.2571,-0.2602,-0.2593,-0.2589,-0.2453,-0.2446,0,0,-0.2522,-0.2528,-0.2551,-0.2558,-0.2602,-0.2594,-0.2626,-0.2608,-0.2588,-0.2567,-0.2568,-0.2604,-0.2594,-0.2589,-0.2494,-0.2485,0,0,0,-0.2551,-0.2558,-0.2576,-0.26,-0.2634,-0.2643,-0.264,-0.2634,-0.2622,-0.2593,-0.2609,-0.2601,-0.2597,-0.2514,-0.2507,-0.2419,-0.2574,-0.2574,-0.2574,-0.2514,-0.2553,-0.2577,-0.2619,-0.2648,-0.2674,-0.2679,-0.2665,-0.2653,-0.2655,-0.2634,-0.2657,-0.257,-0.2563,-0.2475,-0.2651,-0.2651,-0.2651,-0.2651,-0.2507,-0.2504,-0.2559,-0.2593,-0.2628,-0.265,-0.2688,-0.2689,-0.2683,-0.2671,-0.2666,-0.256,-0.2558,-0.2466,-0.2653,-0.2653,-0.2653,-0.2652,-0.2652,-0.244,-0.2443,-0.2479,-0.2521,-0.2562,-0.2619,-0.2642,-0.2681,-0.2686,-0.2695,-0.2581,-0.2579,-0.2491,-0.269,-0.269,-0.269,-0.269,-0.269,-0.2689,-0.2335,-0.2378,-0.2376,-0.2447,-0.2465,-0.2521,-0.2609,-0.2626,-0.2612,-0.2587,-0.2586,-0.2475,-0.2667,-0.2658,-0.2689,-0.2689,-0.2689,-0.2689,-0.2689,-0.2213,-0.2245,-0.224,-0.2257,-0.2323,-0.2312,-0.2459,-0.246,-0.2499,-0.2454,-0.2341,-0.2525,-0.2491,-0.2494,-0.2479,-0.2463,-0.2463,-0.2463,-0.2463,-0.2103,-0.2132,-0.2087,-0.2091,-0.2125,-0.22,-0.2127,-0.2162,-0.2172,-0.2121,-0.2202,-0.216,-0.2173,-0.212,-0.2131,-0.2109,-0.1999,-0.1999,-0.1998,-0.1992,-0.2014,-0.1932,-0.1975,-0.2012,-0.2028,-0.1888,-0.1842,-0.1895,-0.1978,-0.211,-0.213,-0.2071,-0.2098,-0.2018,-0.2041,-0.2007,0,0]},{"header":{"parameterUnit":"m.s-1","parameterCategory":2,"la1":30.2992,"la2":30.254,"lo1":-89.0895,"lo2":-89.0443,"dy":0.0025,"dx":0.0025,"nx":19,"ny":19,"refTime":"2026-04-06T21:00:00:Z","depth":"0","parameterNumber":3,"parameterNumberName":"V-component_of_CURRENTS"},"data":[0,0,0,-0.0475,-0.0473,-0.0389,-0.0388,-0.0241,-0.024,0,0,0,0,0,0,0,0,0,0,0,-0.0504,-0.0504,-0.0475,-0.0473,-0.0389,-0.0388,-0.0241,-0.024,0,0,0,0,0,0,0,0,0,0,0,-0.0504,-0.0504,-0.0504,-0.0473,-0.0389,-0.0388,-0.0242,-0.0311,0,0,0,0,0,0,0,0,0,0,-0.0396,-0.0437,-0.0504,-0.0504,-0.0473,-0.0389,-0.0388,-0.0314,-0.0306,-0.0274,0,-0.0274,0,-0.026,-0.0231,-0.023,0,0,0,-0.0455,-0.0444,-0.0423,-0.0504,-0.0472,-0.0389,-0.0422,-0.031,-0.0301,-0.0264,-0.0272,-0.0266,-0.0258,-0.023,-0.0229,-0.014,-0.014,0,0,-0.046,-0.0481,-0.0429,-0.0418,-0.0465,-0.0425,-0.0419,-0.0305,-0.03,-0.0271,-0.0263,-0.0255,-0.0229,-0.0228,-0.014,-0.014,0,0,0,-0.0485,-0.0484,-0.0466,-0.0424,-0.0415,-0.0423,-0.0416,-0.0305,-0.03,-0.0261,-0.0254,-0.0228,-0.0227,-0.014,-0.014,-0.023,0,0,0,-0.0487,-0.05,-0.0469,-0.0479,-0.0418,-0.0365,-0.0419,-0.0308,-0.0295,-0.0254,-0.0228,-0.0225,-0.014,-0.014,-0.0228,-0.0267,0,0,0,-0.0505,-0.0502,-0.0498,-0.0481,-0.0452,-0.0367,-0.0354,-0.0305,-0.029,-0.023,-0.0225,-0.014,-0.014,-0.0225,-0.0263,-0.0233,0,0,0,-0.0521,-0.0544,-0.0499,-0.0515,-0.0454,-0.0422,-0.0355,-0.0317,-0.0273,-0.0228,-0.014,-0.014,-0.0225,-0.026,-0.0232,-0.0155,-0.0157,0,0,-0.0564,-0.0549,-0.0559,-0.0517,-0.052,-0.0432,-0.0411,-0.0325,-0.0259,-0.0171,-0.0169,-0.0228,-0.0262,-0.0233,-0.0159,-0.0161,0,0,0,-0.0582,-0.0595,-0.0585,-0.0573,-0.0526,-0.0478,-0.039,-0.0339,-0.0263,-0.0236,-0.0204,-0.0222,-0.0201,-0.0151,-0.0152,0.0034,-0.014,-0.014,-0.014,-0.0669,-0.0644,-0.0665,-0.0629,-0.0597,-0.0502,-0.0452,-0.0361,-0.0299,-0.0278,-0.0278,-0.0295,-0.0244,-0.0243,-0.0054,-0.0257,-0.0257,-0.0257,-0.0258,-0.0754,-0.0773,-0.0729,-0.0743,-0.0672,-0.0637,-0.0506,-0.045,-0.0359,-0.0324,-0.0298,-0.0228,-0.025,-0.0047,-0.0263,-0.0262,-0.0261,-0.0261,-0.0261,-0.0823,-0.0831,-0.0829,-0.0837,-0.0809,-0.0719,-0.0665,-0.0559,-0.044,-0.0425,-0.0304,-0.0302,-0.0133,-0.0398,-0.0398,-0.0398,-0.0398,-0.0398,-0.0398,-0.0897,-0.0895,-0.0938,-0.0933,-0.0935,-0.0895,-0.0752,-0.0662,-0.0484,-0.0383,-0.0381,-0.0104,-0.0336,-0.0343,-0.0399,-0.0399,-0.0399,-0.0398,-0.0398,-0.0985,-0.0981,-0.1052,-0.1072,-0.1073,-0.1043,-0.0899,-0.0651,-0.0525,-0.0415,-0.0067,-0.0327,-0.0276,-0.0272,-0.0275,-0.031,-0.031,-0.031,-0.031,-0.1042,-0.1047,-0.1139,-0.1184,-0.1199,-0.111,-0.0948,-0.0654,-0.0216,0.0015,0.0072,0.0132,0.012,0.0198,0.0191,0.02,0.0286,0.0287,0.0288,-0.1095,-0.1122,-0.1191,-0.1231,-0.1252,-0.1167,-0.0982,-0.0595,0.0048,0.0329,0.0315,0.029,0.0392,0.0358,0.0493,0.0467,0.0486,0,0]}],[{"header":{"parameterUnit":"m.s-1","parameterCategory":2,"la1":30.2992,"la2":30.254,"lo1":-89.0895,"lo2":-89.0443,"dy":0.0025,"dx":0.0025,"nx":19,"ny":19,"refTime":"2026-04-06T21:00:00:Z","depth":"2","parameterNumber":2,"parameterNumberName":"U-component_of_CURRENTS"},"data":[0,0,0,-0.2154,-0.2155,-0.221,-0.221,-0.2216,-0.2216,0,0,0,0,0,0,0,0,0,0,0,-0.213,-0.2131,-0.2154,-0.2155,-0.221,-0.221,-0.2216,-0.2216,0,0,0,0,0,0,0,0,0,0,0,-0.213,-0.213,-0.2131,-0.2156,-0.221,-0.221,-0.2216,-0.2188,0,0,0,0,0,0,0,0,0,0,-0.2142,-0.2125,-0.213,-0.2131,-0.2156,-0.221,-0.221,-0.2188,-0.219,-0.2175,0,-0.219,0,-0.2208,-0.2215,-0.2215,0,0,0,-0.2147,-0.2123,-0.2148,-0.2131,-0.2157,-0.221,-0.2183,-0.2189,-0.2192,-0.2178,-0.219,-0.2191,-0.2208,-0.2215,-0.2215,-0.2242,-0.2242,0,0,-0.2143,-0.2127,-0.2147,-0.215,-0.2178,-0.2181,-0.2185,-0.2192,-0.2189,-0.219,-0.2192,-0.2208,-0.2215,-0.2215,-0.2242,-0.2242,0,0,0,-0.2141,-0.2125,-0.2151,-0.2149,-0.2167,-0.2183,-0.2187,-0.2189,-0.2201,-0.2192,-0.2208,-0.2215,-0.2215,-0.2241,-0.2242,-0.228,0,0,0,-0.2138,-0.2124,-0.215,-0.2139,-0.2168,-0.2186,-0.2184,-0.22,-0.2202,-0.2208,-0.2215,-0.2215,-0.2241,-0.2242,-0.2279,-0.2274,0,0,0,-0.2126,-0.2123,-0.2134,-0.2138,-0.2168,-0.2187,-0.2199,-0.2201,-0.2212,-0.2215,-0.2215,-0.2241,-0.2241,-0.2277,-0.2272,-0.227,0,0,0,-0.21,-0.2123,-0.2133,-0.2166,-0.2168,-0.2219,-0.2199,-0.223,-0.2238,-0.2215,-0.2241,-0.2242,-0.2276,-0.2271,-0.2269,-0.2123,-0.2116,0,0,-0.2117,-0.2124,-0.2147,-0.2159,-0.2209,-0.2211,-0.2254,-0.2255,-0.2241,-0.2231,-0.2233,-0.2279,-0.2272,-0.227,-0.2168,-0.2159,0,0,0,-0.2145,-0.2154,-0.2174,-0.2205,-0.2244,-0.2268,-0.228,-0.2281,-0.2286,-0.2252,-0.2284,-0.2278,-0.2275,-0.2186,-0.2179,-0.2245,-0.2245,-0.2245,-0.2245,-0.2115,-0.2154,-0.2184,-0.2231,-0.2266,-0.2308,-0.2324,-0.2324,-0.2317,-0.2327,-0.2314,-0.2342,-0.2249,-0.2242,-0.233,-0.2331,-0.2331,-0.2331,-0.2331,-0.2113,-0.2116,-0.2176,-0.2217,-0.2264,-0.2299,-0.2348,-0.2356,-0.2364,-0.2355,-0.2351,-0.2236,-0.2237,-0.2334,-0.2334,-0.2333,-0.2333,-0.2333,-0.2332,-0.2059,-0.2064,-0.2107,-0.2162,-0.2217,-0.2283,-0.2314,-0.2363,-0.2376,-0.2386,-0.2268,-0.2265,-0.2345,-0.2384,-0.2384,-0.2384,-0.2384,-0.2384,-0.2384,-0.1968,-0.2014,-0.2023,-0.2104,-0.2131,-0.2197,-0.2292,-0.231,-0.23,-0.2278,-0.2277,-0.2359,-0.2358,-0.2347,-0.2384,-0.2384,-0.2384,-0.2384,-0.2384,-0.1863,-0.1897,-0.1905,-0.1931,-0.2005,-0.1993,-0.214,-0.2138,-0.218,-0.2134,-0.2209,-0.2214,-0.2177,-0.218,-0.2164,-0.2152,-0.2152,-0.2152,-0.2152,-0.1766,-0.1796,-0.1771,-0.1783,-0.1816,-0.1884,-0.1798,-0.1809,-0.1893,-0.1884,-0.1896,-0.1852,-0.1867,-0.1811,-0.1823,-0.1799,-0.1692,-0.1691,-0.169,-0.167,-0.1694,-0.1629,-0.1676,-0.1708,-0.1711,-0.1554,-0.1439,-0.1492,-0.1674,-0.1833,-0.2118,-0.2084,-0.2095,-0.2034,-0.2043,-0.2015,0,0]},{"header":{"parameterUnit":"m.s-1","parameterCategory":2,"la1":30.2992,"la2":30.254,"lo1":-89.0895,"lo2":-89.0443,"dy":0.0025,"dx":0.0025,"nx":19,"ny":19,"refTime":"2026-04-06T21:00:00:Z","depth":"2","parameterNumber":3,"parameterNumberName":"V-component_of_CURRENTS"},"data":[0,0,0,-0.0394,-0.0393,-0.0324,-0.0324,-0.0186,-0.0185,0,0,0,0,0,0,0,0,0,0,0,-0.0417,-0.0416,-0.0394,-0.0393,-0.0324,-0.0324,-0.0186,-0.0185,0,0,0,0,0,0,0,0,0,0,0,-0.0417,-0.0416,-0.0416,-0.0393,-0.0324,-0.0324,-0.0187,-0.0247,0,0,0,0,0,0,0,0,0,0,-0.0318,-0.0354,-0.0416,-0.0416,-0.0393,-0.0325,-0.0324,-0.025,-0.0243,-0.0209,0,-0.021,0,-0.0202,-0.0176,-0.0176,0,0,0,-0.0375,-0.036,-0.0343,-0.0416,-0.0392,-0.0325,-0.035,-0.0246,-0.0238,-0.02,-0.0208,-0.0204,-0.02,-0.0176,-0.0175,-0.0086,-0.0086,0,0,-0.0379,-0.0396,-0.0349,-0.0339,-0.0389,-0.0353,-0.0348,-0.0242,-0.0237,-0.0208,-0.0201,-0.0197,-0.0175,-0.0174,-0.0086,-0.0086,0,0,0,-0.0402,-0.0399,-0.0385,-0.0344,-0.034,-0.0351,-0.0346,-0.0242,-0.0238,-0.0199,-0.0196,-0.0174,-0.0172,-0.0086,-0.0086,-0.0171,0,0,0,-0.0403,-0.0414,-0.0387,-0.0396,-0.0343,-0.0298,-0.0349,-0.0245,-0.0233,-0.0196,-0.0174,-0.0171,-0.0086,-0.0086,-0.0169,-0.0206,0,0,0,-0.0417,-0.0415,-0.0412,-0.0397,-0.0376,-0.0299,-0.0289,-0.0243,-0.0232,-0.0176,-0.0171,-0.0086,-0.0086,-0.0167,-0.0202,-0.018,0,0,0,-0.0429,-0.0453,-0.0413,-0.0432,-0.0377,-0.0351,-0.0289,-0.0257,-0.0216,-0.0173,-0.0086,-0.0086,-0.0166,-0.0199,-0.0178,-0.0123,-0.0126,0,0,-0.0472,-0.0459,-0.047,-0.0433,-0.0439,-0.0359,-0.034,-0.0262,-0.02,-0.0114,-0.0112,-0.017,-0.0201,-0.0179,-0.0123,-0.0126,0,0,0,-0.0492,-0.0505,-0.0497,-0.0488,-0.0446,-0.0403,-0.0322,-0.0274,-0.0202,-0.0179,-0.0145,-0.0162,-0.0146,-0.0108,-0.0111,-0.0086,-0.0086,-0.0086,-0.0086,-0.0573,-0.0551,-0.0572,-0.054,-0.0512,-0.0425,-0.0379,-0.0293,-0.0234,-0.0214,-0.0214,-0.0232,-0.0194,-0.0195,-0.0192,-0.0192,-0.0193,-0.0193,-0.0193,-0.0654,-0.0672,-0.0631,-0.0648,-0.0582,-0.055,-0.0427,-0.0375,-0.0289,-0.0254,-0.0233,-0.0179,-0.0203,-0.0199,-0.0198,-0.0197,-0.0197,-0.0196,-0.0196,-0.0717,-0.0725,-0.0726,-0.0736,-0.0712,-0.0629,-0.0582,-0.048,-0.0367,-0.0353,-0.0256,-0.0253,-0.0275,-0.0331,-0.0332,-0.0332,-0.0332,-0.0332,-0.0332,-0.0785,-0.0785,-0.0828,-0.0826,-0.0832,-0.0798,-0.0669,-0.0588,-0.0427,-0.0331,-0.0329,-0.0277,-0.0273,-0.028,-0.0333,-0.0333,-0.0333,-0.0333,-0.0332,-0.0866,-0.0865,-0.0935,-0.0958,-0.0964,-0.0942,-0.0814,-0.0598,-0.0484,-0.0386,-0.0289,-0.029,-0.0244,-0.024,-0.0245,-0.0285,-0.0285,-0.0285,-0.0285,-0.0919,-0.0924,-0.1017,-0.1064,-0.1083,-0.1006,-0.0869,-0.0614,-0.0374,-0.0253,-0.0255,-0.0231,-0.0233,-0.0185,-0.0182,-0.0184,-0.021,-0.021,-0.021,-0.0967,-0.0994,-0.1063,-0.1107,-0.1133,-0.106,-0.09,-0.0567,-0.0244,-0.021,-0.0274,-0.0274,-0.0241,-0.0244,-0.0169,-0.0165,-0.0168,0,0]}],[{"header":{"parameterUnit":"m.s-1","parameterCategory":2,"la1":30.2992,"la2":30.254,"lo1":-89.0895,"lo2":-89.0443,"dy":0.0025,"dx":0.0025,"nx":19,"ny":19,"refTime":"2026-04-06T21:00:00:Z","depth":"4","parameterNumber":2,"parameterNumberName":"U-component_of_CURRENTS"},"data":[0,0,0,-0.1422,-0.1424,-0.1557,-0.1558,-0.1654,-0.1654,0,0,0,0,0,0,0,0,0,0,0,-0.1379,-0.138,-0.1421,-0.1425,-0.1557,-0.1558,-0.1654,-0.1654,0,0,0,0,0,0,0,0,0,0,0,-0.1379,-0.138,-0.1381,-0.1425,-0.1557,-0.1558,-0.1654,-0.1572,0,0,0,0,0,0,0,0,0,0,-0.1453,-0.1425,-0.138,-0.1381,-0.1426,-0.1557,-0.1558,-0.1569,-0.1577,-0.1572,0,-0.1599,0,-0.1625,-0.1659,-0.1659,0,0,0,-0.1428,-0.1418,-0.1452,-0.1381,-0.1427,-0.1557,-0.1498,-0.1575,-0.1584,-0.1582,-0.16,-0.1605,-0.1626,-0.1659,-0.166,-0.1749,-0.1749,0,0,-0.1421,-0.1404,-0.1446,-0.1458,-0.1469,-0.1494,-0.1502,-0.1581,-0.1592,-0.1601,-0.1607,-0.1628,-0.166,-0.166,-0.1748,-0.1749,0,0,0,-0.1397,-0.1398,-0.1432,-0.1453,-0.1481,-0.1498,-0.1507,-0.1589,-0.16,-0.1608,-0.1629,-0.166,-0.1661,-0.1748,-0.1748,-0.1788,0,0,0,-0.1393,-0.1385,-0.1429,-0.142,-0.148,-0.1547,-0.1514,-0.1595,-0.1605,-0.1629,-0.166,-0.1662,-0.1747,-0.1748,-0.1786,-0.1784,0,0,0,-0.1372,-0.1383,-0.14,-0.1419,-0.1474,-0.1547,-0.1563,-0.1598,-0.1617,-0.1659,-0.1662,-0.1747,-0.1748,-0.1784,-0.1781,-0.1786,0,0,0,-0.1347,-0.1374,-0.14,-0.1445,-0.1473,-0.1559,-0.1563,-0.1636,-0.1677,-0.166,-0.1747,-0.1748,-0.1783,-0.178,-0.1785,-0.1546,0,0,0,-0.1361,-0.1375,-0.1403,-0.1429,-0.1505,-0.154,-0.1623,-0.1679,-0.1688,-0.1715,-0.1718,-0.1787,-0.1781,-0.1786,-0.1616,0,0,0,0,-0.1395,-0.1414,-0.1443,-0.1498,-0.1561,-0.1629,-0.1688,-0.1711,-0.1766,-0.1717,-0.1799,-0.1794,-0.1795,-0.1653,-0.1754,-0.1754,-0.1753,-0.1753,-0.1753,-0.1374,-0.1422,-0.1474,-0.1544,-0.1605,-0.1698,-0.1747,-0.1787,-0.1799,-0.1832,-0.1836,-0.1878,-0.1731,-0.1857,-0.1857,-0.1857,-0.1857,-0.1857,-0.1858,-0.1381,-0.14,-0.1488,-0.1557,-0.1643,-0.172,-0.1808,-0.1837,-0.1885,-0.1883,-0.1884,-0.1717,-0.1862,-0.1861,-0.186,-0.186,-0.1859,-0.1859,-0.1859,-0.1337,-0.1351,-0.1423,-0.1526,-0.163,-0.1734,-0.1788,-0.1869,-0.1906,-0.1924,-0.1761,-0.1895,-0.1879,-0.1931,-0.1931,-0.1931,-0.1931,-0.1931,-0.1931,-0.1246,-0.1317,-0.1366,-0.1492,-0.1554,-0.1653,-0.1784,-0.1803,-0.1872,-0.1766,-0.1933,-0.1901,-0.1899,-0.1883,-0.1931,-0.1931,-0.1931,-0.1931,-0.1931,-0.1155,-0.1208,-0.1259,-0.1323,-0.145,-0.1503,-0.167,-0.1662,-0.166,-0.1605,-0.1673,-0.1686,-0.164,-0.1644,-0.1617,-0.1588,-0.1585,-0.1582,0,-0.1072,-0.111,-0.1152,-0.1204,-0.1248,-0.1396,-0.1345,-0.1406,-0.1462,-0.1409,-0.1652,-0.1728,-0.1735,-0.1686,-0.1684,-0.1651,0,0,0,-0.1,-0.1034,-0.1019,-0.1101,-0.1141,-0.1193,-0.1318,-0.1272,-0.1471,-0.1399,-0.1509,-0.1528,-0.1778,-0.1933,-0.1893,-0.189,-0.1861,0,0]},{"header":{"parameterUnit":"m.s-1","parameterCategory":2,"la1":30.2992,"la2":30.254,"lo1":-89.0895,"lo2":-89.0443,"dy":0.0025,"dx":0.0025,"nx":19,"ny":19,"refTime":"2026-04-06T21:00:00:Z","depth":"4","parameterNumber":3,"parameterNumberName":"V-component_of_CURRENTS"},"data":[0,0,0,-0.0274,-0.0274,-0.0246,-0.0245,-0.0143,-0.0142,0,0,0,0,0,0,0,0,0,0,0,-0.0281,-0.0281,-0.0274,-0.0274,-0.0246,-0.0245,-0.0144,-0.0142,0,0,0,0,0,0,0,0,0,0,0,-0.0281,-0.0281,-0.0281,-0.0274,-0.0246,-0.0245,-0.0144,-0.0178,0,0,0,0,0,0,0,0,0,0,-0.0212,-0.0236,-0.0281,-0.0281,-0.0274,-0.0246,-0.0245,-0.018,-0.0176,-0.0142,0,-0.0148,0,-0.015,-0.0136,-0.0135,0,0,0,-0.0258,-0.024,-0.0233,-0.0281,-0.0274,-0.0246,-0.0254,-0.0178,-0.0173,-0.0136,-0.0147,-0.0144,-0.0148,-0.0135,-0.0134,-0.0058,-0.0058,0,0,-0.026,-0.0269,-0.0237,-0.023,-0.0278,-0.0255,-0.0253,-0.0175,-0.0173,-0.0147,-0.0142,-0.0146,-0.0134,-0.0133,-0.0058,-0.0058,0,0,0,-0.0275,-0.0271,-0.0266,-0.0234,-0.0238,-0.0255,-0.0253,-0.0176,-0.0176,-0.0141,-0.0145,-0.0134,-0.0132,-0.0058,-0.0058,-0.013,0,0,0,-0.0275,-0.028,-0.0268,-0.0272,-0.024,-0.0217,-0.0255,-0.0181,-0.0173,-0.0146,-0.0134,-0.0131,-0.0058,-0.0058,-0.0128,-0.0161,0,0,0,-0.028,-0.0281,-0.0282,-0.0273,-0.0268,-0.0218,-0.0213,-0.0179,-0.0176,-0.0135,-0.0131,-0.0058,-0.0058,-0.0127,-0.0158,-0.0146,0,0,0,-0.0284,-0.0308,-0.0282,-0.0305,-0.0269,-0.026,-0.0214,-0.0197,-0.0169,-0.0133,-0.0058,-0.0058,-0.0126,-0.0156,-0.0145,-0.0156,0,0,0,-0.032,-0.0312,-0.0325,-0.0302,-0.0318,-0.0262,-0.0256,-0.02,-0.015,-0.0076,-0.0075,-0.0129,-0.0158,-0.0146,-0.0146,0,0,0,0,-0.034,-0.0353,-0.0352,-0.0353,-0.033,-0.0305,-0.0247,-0.0209,-0.0153,-0.0135,-0.0105,-0.012,-0.0111,-0.0112,-0.0057,-0.0057,-0.0057,-0.0057,-0.0057,-0.0399,-0.0389,-0.0413,-0.0398,-0.0383,-0.0326,-0.0293,-0.0225,-0.0177,-0.016,-0.0162,-0.0179,-0.0183,-0.014,-0.014,-0.014,-0.0141,-0.0141,-0.0141,-0.0461,-0.0476,-0.0458,-0.0483,-0.0443,-0.0425,-0.0332,-0.0292,-0.0224,-0.0193,-0.0179,-0.0168,-0.0147,-0.0146,-0.0145,-0.0144,-0.0144,-0.0143,-0.0143,-0.05,-0.0508,-0.0524,-0.0549,-0.0547,-0.0493,-0.0466,-0.0385,-0.0292,-0.0282,-0.0244,-0.0209,-0.0221,-0.0268,-0.0268,-0.0268,-0.0269,-0.0269,-0.0269,-0.0533,-0.0547,-0.0596,-0.0617,-0.0638,-0.0628,-0.0543,-0.0486,-0.0383,-0.0317,-0.0296,-0.0221,-0.0217,-0.0226,-0.027,-0.027,-0.027,-0.027,-0.027,-0.0574,-0.0589,-0.0662,-0.0699,-0.0739,-0.0723,-0.0657,-0.0517,-0.0453,-0.0374,-0.0314,-0.0311,-0.0277,-0.0271,-0.0281,-0.0343,-0.0344,-0.0344,0,-0.06,-0.0612,-0.0711,-0.0773,-0.0804,-0.0769,-0.0687,-0.0598,-0.0457,-0.0452,-0.0457,-0.0396,-0.0391,-0.036,-0.0354,-0.0371,0,0,0,-0.0623,-0.0655,-0.0722,-0.0788,-0.0826,-0.0721,-0.0659,-0.0606,-0.0481,-0.0408,-0.0352,-0.035,-0.0349,-0.0275,-0.0215,-0.021,-0.0221,0,0]}]]